When you browse on this site, cookies collect data to enhance your experience and personalize the content and advertising you see.
Visit our Privacy Policy to learn more. By continuing to use the site, you agree to this use of cookies and data.
  • In Czech Republic
  • List of Countries
  • For 7 days
  • Water Temperature
  • Weather Map
  • Weather Widgets
  • user-avatar
    Login

    Hourly Weather La Fleche

    Today, 1 June, Monday

    Time Temperature Precipitation Wind Pressure Humidity
    00:00 +12°C° 0 mm 4 mps 755 mmHg 84%
    01:00 +11°C° 0 mm 4 mps 755 mmHg 83%
    02:00 +11°C° 0 mm 4 mps 755 mmHg 83%
    03:00 +11°C° 0 mm 4 mps 755 mmHg 83%
    04:00 +11°C° 0 mm 4 mps 755 mmHg 82%
    05:00 +12°C° 0 mm 5 mps 755 mmHg 81%
    06:00 +12°C° 0 mm 5 mps 755 mmHg 79%
    07:00 +14°C° 0 mm 5 mps 755 mmHg 74%
    08:00 +16°C° 0 mm 5 mps 755 mmHg 69%
    09:00 +19°C° 0 mm 5 mps 756 mmHg 64%
    10:00 +21°C° 0 mm 5 mps 756 mmHg 62%
    11:00 +22°C° 0 mm 5 mps 755 mmHg 59%
    12:00 +23°C° 0 mm 5 mps 755 mmHg 56%
    13:00 +23°C° 0 mm 5 mps 755 mmHg 56%
    14:00 +25°C° 0 mm 5 mps 755 mmHg 57%
    15:00 +25°C° 0 mm 5 mps 755 mmHg 57%
    16:00 +25°C° 0 mm 4 mps 755 mmHg 61%
    17:00 +23°C° 0 mm 4 mps 755 mmHg 66%
    18:00 +22°C° 0 mm 3 mps 755 mmHg 71%
    19:00 +20°C° 0 mm 3 mps 755 mmHg 76%
    20:00 +19°C° 0 mm 3 mps 756 mmHg 81%
    21:00 +17°C° 0 mm 3 mps 756 mmHg 86%
    22:00 +16°C° 0 mm 3 mps 756 mmHg 88%
    23:00 +14°C° 0 mm 3 mps 756 mmHg 91%

    Tomorrow, 2 June, Tuesday

    Time Temperature Precipitation Wind Pressure Humidity
    00:00 +14°C° 0 mm 3 mps 756 mmHg 93%
    01:00 +14°C° 0 mm 3 mps 756 mmHg 93%
    02:00 +13°C° 0 mm 3 mps 755 mmHg 94%
    03:00 +13°C° 0 mm 3 mps 755 mmHg 94%
    04:00 +14°C° 0 mm 3 mps 755 mmHg 92%
    05:00 +14°C° 0 mm 3 mps 756 mmHg 89%
    06:00 +16°C° 0 mm 3 mps 756 mmHg 86%
    07:00 +18°C° 0 mm 3 mps 756 mmHg 80%
    08:00 +20°C° 0 mm 3 mps 756 mmHg 74%
    09:00 +22°C° 0 mm 3 mps 756 mmHg 68%
    10:00 +24°C° 0 mm 3 mps 755 mmHg 63%
    11:00 +26°C° 0 mm 3 mps 755 mmHg 58%
    12:00 +27°C° 0 mm 3 mps 755 mmHg 53%
    13:00 +27°C° 0 mm 3 mps 754 mmHg 52%
    14:00 +27°C° 0 mm 3 mps 754 mmHg 51%
    15:00 +28°C° 0 mm 3 mps 754 mmHg 50%
    16:00 +27°C° 0 mm 2 mps 753 mmHg 54%
    17:00 +26°C° 0 mm 2 mps 753 mmHg 59%
    18:00 +26°C° 0 mm 2 mps 753 mmHg 64%
    19:00 +23°C° 0 mm 2 mps 753 mmHg 68%
    20:00 +20°C° 0 mm 2 mps 753 mmHg 73%
    21:00 +18°C° 0 mm 2 mps 753 mmHg 77%
    22:00 +17°C° 0 mm 2 mps 752 mmHg 82%
    23:00 +16°C° 0 mm 2 mps 752 mmHg 86%

    Day after tomorrow, 3 June, Wednesday

    Time Temperature Precipitation Wind Pressure Humidity
    00:00 +16°C° 0 mm 2 mps 752 mmHg 90%
    01:00 +15°C° 0 mm 2 mps 751 mmHg 90%
    02:00 +15°C° 0 mm 2 mps 751 mmHg 90%
    03:00 +14°C° 0 mm 2 mps 750 mmHg 90%
    04:00 +15°C° 0 mm 2 mps 750 mmHg 88%
    05:00 +15°C° 0 mm 2 mps 749 mmHg 86%
    06:00 +16°C° 0 mm 2 mps 749 mmHg 84%
    07:00 +18°C° 0.2 mm 2 mps 749 mmHg 80%
    08:00 +19°C° 0.2 mm 2 mps 748 mmHg 77%
    09:00 +21°C° 0.2 mm 2 mps 748 mmHg 73%
    10:00 +21°C° 1.3 mm 2 mps 748 mmHg 71%
    11:00 +23°C° 1.3 mm 2 mps 747 mmHg 68%
    12:00 +24°C° 1.3 mm 2 mps 747 mmHg 65%
    13:00 +24°C° 0.8 mm 2 mps 746 mmHg 64%
    14:00 +24°C° 0.8 mm 2 mps 746 mmHg 64%
    15:00 +24°C° 0.8 mm 2 mps 746 mmHg 63%
    16:00 +23°C° 1 mm 2 mps 745 mmHg 69%
    17:00 +21°C° 1 mm 2 mps 745 mmHg 75%
    18:00 +21°C° 1 mm 2 mps 745 mmHg 81%
    19:00 +19°C° 0.2 mm 2 mps 745 mmHg 84%
    20:00 +18°C° 0.2 mm 2 mps 745 mmHg 87%
    21:00 +17°C° 0.2 mm 2 mps 746 mmHg 90%
    22:00 +16°C° 0.1 mm 3 mps 746 mmHg 91%
    23:00 +16°C° 0.1 mm 3 mps 746 mmHg 93%

    4 June, Thursday

    Time Temperature Precipitation Wind Pressure Humidity
    00:00 +14°C° 0.1 mm 4 mps 745 mmHg 94%
    01:00 +13°C° 0.5 mm 4 mps 745 mmHg 94%
    02:00 +13°C° 0.5 mm 4 mps 745 mmHg 95%
    03:00 +12°C° 0.5 mm 4 mps 745 mmHg 95%
    04:00 +12°C° 0.6 mm 4 mps 746 mmHg 95%
    05:00 +12°C° 0.6 mm 4 mps 746 mmHg 94%
    06:00 +12°C° 0.6 mm 5 mps 746 mmHg 94%
    07:00 +13°C° 0 mm 5 mps 746 mmHg 90%
    08:00 +14°C° 0 mm 4 mps 746 mmHg 87%
    09:00 +15°C° 0 mm 4 mps 746 mmHg 84%
    10:00 +17°C° 0 mm 4 mps 747 mmHg 78%
    11:00 +19°C° 0 mm 4 mps 747 mmHg 72%
    12:00 +20°C° 0 mm 3 mps 747 mmHg 67%
    13:00 +20°C° 0 mm 3 mps 747 mmHg 66%
    14:00 +20°C° 0 mm 3 mps 747 mmHg 66%
    15:00 +20°C° 0 mm 3 mps 747 mmHg 66%
    16:00 +20°C° 0 mm 3 mps 747 mmHg 68%
    17:00 +19°C° 0 mm 3 mps 747 mmHg 69%
    18:00 +19°C° 0 mm 3 mps 747 mmHg 71%
    19:00 +17°C° 0 mm 3 mps 747 mmHg 76%
    20:00 +14°C° 0 mm 3 mps 748 mmHg 80%
    21:00 +12°C° 0 mm 3 mps 748 mmHg 85%
    22:00 +11°C° 0 mm 3 mps 748 mmHg 88%
    23:00 +10°C° 0 mm 2 mps 748 mmHg 90%

    5 June, Friday

    Time Temperature Precipitation Wind Pressure Humidity
    00:00 +9°C° 0 mm 2 mps 748 mmHg 92%
    01:00 +9°C° 0 mm 2 mps 748 mmHg 93%
    02:00 +10°C° 0 mm 1 mps 748 mmHg 93%
    03:00 +9°C° 0 mm 1 mps 748 mmHg 93%
    04:00 +10°C° 0 mm 1 mps 748 mmHg 89%
    05:00 +11°C° 0 mm 1 mps 748 mmHg 86%
    06:00 +12°C° 0 mm 1 mps 747 mmHg 82%
    07:00 +14°C° 0 mm 2 mps 747 mmHg 77%
    08:00 +14°C° 0 mm 3 mps 747 mmHg 71%
    09:00 +17°C° 0 mm 3 mps 747 mmHg 66%
    10:00 +18°C° 0 mm 4 mps 747 mmHg 62%
    11:00 +19°C° 0 mm 4 mps 747 mmHg 58%
    12:00 +20°C° 0 mm 5 mps 747 mmHg 54%
    13:00 +20°C° 0 mm 5 mps 746 mmHg 54%
    14:00 +20°C° 0 mm 5 mps 746 mmHg 54%
    15:00 +21°C° 0 mm 6 mps 746 mmHg 54%
    16:00 +20°C° 0 mm 5 mps 746 mmHg 61%
    17:00 +17°C° 0 mm 5 mps 746 mmHg 67%
    18:00 +17°C° 0 mm 4 mps 746 mmHg 74%
    19:00 +15°C° 0 mm 4 mps 746 mmHg 76%
    20:00 +16°C° 0 mm 3 mps 747 mmHg 79%
    21:00 +14°C° 0 mm 3 mps 747 mmHg 81%
    22:00 +14°C° 0 mm 3 mps 747 mmHg 83%
    23:00 +13°C° 0 mm 3 mps 747 mmHg 84%

    6 June, Saturday

    Time Temperature Precipitation Wind Pressure Humidity
    00:00 +13°C° 0 mm 4 mps 748 mmHg 86%
    01:00 +12°C° 0 mm 3 mps 748 mmHg 88%
    02:00 +11°C° 0 mm 3 mps 748 mmHg 89%
    03:00 +10°C° 0 mm 3 mps 748 mmHg 91%
    04:00 +10°C° 0 mm 3 mps 748 mmHg 88%
    05:00 +10°C° 0 mm 3 mps 748 mmHg 86%
    06:00 +10°C° 0 mm 4 mps 749 mmHg 84%
    07:00 +11°C° 0 mm 4 mps 749 mmHg 76%
    08:00 +13°C° 0 mm 4 mps 749 mmHg 69%
    09:00 +15°C° 0 mm 5 mps 750 mmHg 62%
    10:00 +15°C° 0.1 mm 5 mps 750 mmHg 61%
    11:00 +16°C° 0.1 mm 5 mps 750 mmHg 60%
    12:00 +17°C° 0.1 mm 5 mps 750 mmHg 59%
    13:00 +16°C° 0.1 mm 5 mps 750 mmHg 62%
    14:00 +17°C° 0.1 mm 4 mps 750 mmHg 64%
    15:00 +17°C° 0.1 mm 4 mps 750 mmHg 66%
    16:00 +15°C° 0 mm 4 mps 751 mmHg 66%
    17:00 +15°C° 0 mm 4 mps 751 mmHg 67%
    18:00 +14°C° 0 mm 4 mps 751 mmHg 67%
    19:00 +12°C° 0 mm 4 mps 752 mmHg 69%
    20:00 +11°C° 0 mm 4 mps 752 mmHg 72%
    21:00 +9°C° 0 mm 3 mps 753 mmHg 74%
    22:00 +8°C° 0 mm 3 mps 753 mmHg 77%
    23:00 +7°C° 0 mm 2 mps 753 mmHg 81%
    Show more